Greensboro, NC

12:57 AM EDT on July 28, 2017 (GMT -0400)
Piedmont Triad International

Weather History for KGSO - March, 2013

Change the Weather History Date:

Saturday, March 16, 2013

  Actual Average Record
Temperature  
Mean Temperature 62 °F 50 °F  
Max Temperature 77 °F 61 °F 86 °F (2016)
Min Temperature 47 °F 39 °F 19 °F (1970)
Degree Days  
Heating Degree Days 3 15  
Month to date heating degree days 323 276  
Since 1 July heating degree days 3027 3131  
Cooling Degree Days 0 0  
Month to date cooling degree days 0 0  
Year to date cooling degree days 0 0  
Growing Degree Days 12 (Base 50)    
Moisture  
Dew Point 42 °F    
Average Humidity 58    
Maximum Humidity 84    
Minimum Humidity 31    
Precipitation  
Precipitation 0.02 in 0.12 in 1.59 in (2000)
Month to date precipitation 1.26 1.92  
Year to date precipitation 9.93 7.94  
Snow  
Snow 0.00 in 0.00 in 2.40 in (1960)
Month to date snowfall 0.0 0.6  
Since 1 July snowfall 3.6 7.3  
Snow Depth 0.00 in    
Sea Level Pressure  
Sea Level Pressure 29.77 in    
Wind  
Wind Speed 11 mph (WSW)    
Max Wind Speed 26 mph    
Max Gust Speed 39 mph    
Visibility 10 miles    
Events      
T = Trace of Precipitation, MM = Missing Value Source: NWS Daily Summary

Daily Weather History Graph

Daily Weather History Graph

Search for Another Location

Airport or City:

Trip Planner

Search our weather history database for the weather conditions in past years. The results will help you decide how hot, cold, wet, or windy it might be!

Date:

Astronomy

Mar. 16, 2013 Rise Set
Actual Time 7:28 AM EDT 7:28 PM EDT
Civil Twilight 7:03 AM EDT 7:53 PM EDT
Nautical Twilight 6:33 AM EDT 8:23 PM EDT
Astronomical Twilight 6:03 AM EDT 8:53 PM EDT
Moon 10:06 AM EDT (3/16) No Moon Set
Length of Visible Light 12h 50m
Length of Day
11h 59m
Waxing Crescent, 23% of the Moon is Illuminated
Mar 16
Waxing Crescent
Mar 19
First Quarter
Mar 27
Full
Apr 3
Last Quarter
Apr 10
New

Hourly Weather History & Observations

Time (EDT) Temp. Dew Point Humidity Pressure Visibility Wind Dir Wind Speed Gust Speed Precip Events Conditions
12:54 AM 48.0 °F 34.0 °F 58% 29.86 in 10.0 mi SW 4.6 mph - N/A   Clear
1:54 AM 48.0 °F 34.0 °F 58% 29.84 in 10.0 mi SSW 4.6 mph - N/A   Clear
2:54 AM 48.0 °F 36.0 °F 63% 29.83 in 10.0 mi SW 4.6 mph - N/A   Partly Cloudy
3:54 AM 50.0 °F 37.0 °F 61% 29.81 in 10.0 mi SW 3.5 mph - N/A   Scattered Clouds
4:54 AM 50.0 °F 37.9 °F 63% 29.79 in 10.0 mi SW 9.2 mph - N/A   Partly Cloudy
5:54 AM 51.1 °F 39.0 °F 63% 29.78 in 10.0 mi SW 9.2 mph - N/A   Clear
6:54 AM 52.0 °F 39.0 °F 61% 29.81 in 10.0 mi WSW 8.1 mph - N/A   Mostly Cloudy
7:54 AM 53.1 °F 39.9 °F 61% 29.80 in 10.0 mi SW 9.2 mph - N/A   Mostly Cloudy
8:54 AM 55.9 °F 41.0 °F 57% 29.81 in 10.0 mi SW 8.1 mph - N/A   Scattered Clouds
9:54 AM 61.0 °F 42.1 °F 50% 29.80 in 10.0 mi SW 12.7 mph - N/A   Scattered Clouds
10:54 AM 66.9 °F 43.0 °F 42% 29.78 in 10.0 mi WSW 9.2 mph - N/A   Partly Cloudy
11:54 AM 70.0 °F 43.0 °F 38% 29.76 in 10.0 mi SW 16.1 mph 32.2 mph N/A   Partly Cloudy
12:54 PM 73.9 °F 43.0 °F 33% 29.73 in 10.0 mi SW 19.6 mph 25.3 mph N/A   Clear
1:54 PM 73.9 °F 43.0 °F 33% 29.72 in 10.0 mi WSW 17.3 mph 27.6 mph N/A   Clear
2:54 PM 73.9 °F 43.0 °F 33% 29.70 in 10.0 mi WSW 12.7 mph 23.0 mph N/A   Clear
3:54 PM 75.0 °F 43.0 °F 32% 29.68 in 10.0 mi WSW 16.1 mph 26.5 mph N/A   Partly Cloudy
4:54 PM 75.9 °F 43.0 °F 31% 29.66 in 10.0 mi SW 21.9 mph 28.8 mph N/A   Partly Cloudy
5:54 PM 75.9 °F 42.1 °F 30% 29.65 in 10.0 mi WSW 20.7 mph 29.9 mph N/A   Partly Cloudy
6:54 PM 73.9 °F 43.0 °F 33% 29.67 in 10.0 mi SW 11.5 mph - N/A   Partly Cloudy
7:54 PM 72.0 °F 43.0 °F 35% 29.73 in 10.0 mi West 10.4 mph - N/A   Mostly Cloudy
8:54 PM 61.0 °F 55.0 °F 81% 29.78 in 10.0 mi West 4.6 mph - 0.02 in   Overcast
9:54 PM 63.0 °F 51.1 °F 65% 29.81 in 10.0 mi West 10.4 mph - N/A   Mostly Cloudy
10:54 PM 61.0 °F 51.1 °F 70% 29.82 in 10.0 mi West 4.6 mph - N/A   Partly Cloudy
11:54 PM 57.9 °F 50.0 °F 75% 29.82 in 10.0 mi West 4.6 mph - N/A   Clear